Time,TemperatureF,DewpointF,PressureIn,WindDirection,WindDirectionDegrees,WindSpeedMPH,WindSpeedGustMPH,Humidity,HourlyPrecipIn,Conditions,Clouds,dailyrainin,SolarRadiationWatts/m^2,SoftwareType,DateUTC
2013-06-07 00:02:00,80.0,48.0,-100.00,South,184,7.0,18.0,33,0.00,,,0.00,0.000000,,2013-06-07 07:02:00,
2013-06-07 00:12:00,80.0,48.0,-100.00,South,184,7.0,18.0,33,0.00,,,0.00,0.000000,,2013-06-07 07:12:00,
2013-06-07 00:32:00,79.0,52.0,-100.00,SW,224,8.0,20.0,39,0.00,,,0.00,0.000000,,2013-06-07 07:32:00,
2013-06-07 00:42:00,79.0,52.0,-100.00,SW,224,8.0,20.0,39,0.00,,,0.00,0.000000,,2013-06-07 07:42:00,
2013-06-07 00:52:00,79.0,52.0,-100.00,SW,224,8.0,20.0,39,0.00,,,0.00,0.000000,,2013-06-07 07:52:00,
2013-06-07 01:02:00,79.0,52.0,-100.00,SW,224,8.0,20.0,39,0.00,,,0.00,0.000000,,2013-06-07 08:02:00,
2013-06-07 01:12:00,79.0,52.0,-100.00,SW,224,8.0,20.0,39,0.00,,,0.00,0.000000,,2013-06-07 08:12:00,
2013-06-07 01:32:00,77.0,50.0,-100.00,South,188,7.0,17.0,39,0.00,,,0.00,0.000000,,2013-06-07 08:32:00,
2013-06-07 01:43:00,77.0,50.0,-100.00,South,188,7.0,17.0,39,0.00,,,0.00,0.000000,,2013-06-07 08:43:00,
2013-06-07 01:52:00,77.0,50.0,-100.00,South,188,7.0,17.0,39,0.00,,,0.00,0.000000,,2013-06-07 08:52:00,
2013-06-07 02:02:00,77.0,50.0,-100.00,South,188,7.0,17.0,39,0.00,,,0.00,0.000000,,2013-06-07 09:02:00,
2013-06-07 02:12:00,77.0,50.0,-100.00,South,188,7.0,17.0,39,0.00,,,0.00,0.000000,,2013-06-07 09:12:00,
2013-06-07 02:32:00,76.0,51.0,-100.00,South,184,5.0,11.0,41,0.00,,,0.00,0.000000,,2013-06-07 09:32:00,
2013-06-07 02:43:00,76.0,51.0,-100.00,South,184,5.0,11.0,41,0.00,,,0.00,0.000000,,2013-06-07 09:43:00,
2013-06-07 02:53:00,76.0,51.0,-100.00,South,184,5.0,11.0,41,0.00,,,0.00,0.000000,,2013-06-07 09:53:00,
2013-06-07 03:02:00,76.0,51.0,-100.00,South,184,5.0,11.0,41,0.00,,,0.00,0.000000,,2013-06-07 10:02:00,
2013-06-07 03:12:00,76.0,51.0,-100.00,South,184,5.0,11.0,41,0.00,,,0.00,0.000000,,2013-06-07 10:12:00,
2013-06-07 03:33:00,72.0,49.0,-100.00,SW,230,4.0,8.0,45,0.00,,,0.00,0.000000,,2013-06-07 10:33:00,
2013-06-07 03:42:00,72.0,49.0,-100.00,SW,230,4.0,8.0,45,0.00,,,0.00,0.000000,,2013-06-07 10:42:00,
2013-06-07 03:53:00,72.0,49.0,-100.00,SW,230,4.0,8.0,45,0.00,,,0.00,0.000000,,2013-06-07 10:53:00,
2013-06-07 04:02:00,72.0,49.0,-100.00,SW,230,4.0,8.0,45,0.00,,,0.00,0.000000,,2013-06-07 11:02:00,
2013-06-07 04:12:00,72.0,49.0,-100.00,SW,230,4.0,8.0,45,0.00,,,0.00,0.000000,,2013-06-07 11:12:00,
2013-06-07 04:32:00,69.0,52.0,-100.00,SSE,157,2.0,4.0,54,0.00,,,0.00,0.000000,,2013-06-07 11:32:00,
2013-06-07 04:42:00,69.0,52.0,-100.00,SSE,157,2.0,4.0,54,0.00,,,0.00,0.000000,,2013-06-07 11:42:00,
2013-06-07 04:52:00,69.0,52.0,-100.00,SSE,157,2.0,4.0,54,0.00,,,0.00,0.000000,,2013-06-07 11:52:00,
2013-06-07 05:02:00,69.0,52.0,-100.00,SSE,157,2.0,4.0,54,0.00,,,0.00,0.000000,,2013-06-07 12:02:00,
2013-06-07 05:12:00,69.0,52.0,-100.00,SSE,157,2.0,4.0,54,0.00,,,0.00,0.000000,,2013-06-07 12:12:00,
2013-06-07 05:33:00,67.0,51.0,-100.00,SSE,163,2.0,5.0,57,0.00,,,0.00,0.000000,,2013-06-07 12:33:00,
2013-06-07 05:42:00,67.0,51.0,-100.00,SSE,163,2.0,5.0,57,0.00,,,0.00,0.000000,,2013-06-07 12:42:00,
2013-06-07 05:52:00,67.0,51.0,-100.00,SSE,163,2.0,5.0,57,0.00,,,0.00,0.000000,,2013-06-07 12:52:00,
2013-06-07 06:02:00,67.0,51.0,-100.00,SSE,163,2.0,5.0,57,0.00,,,0.00,0.000000,,2013-06-07 13:02:00,
2013-06-07 06:12:00,67.0,51.0,-100.00,SSE,163,2.0,5.0,57,0.00,,,0.00,0.000000,,2013-06-07 13:12:00,
2013-06-07 06:43:00,67.0,52.0,-100.00,SSE,164,4.0,5.0,58,0.00,,,0.00,9.000000,,2013-06-07 13:43:00,
2013-06-07 06:52:00,67.0,52.0,-100.00,SSE,164,4.0,5.0,58,0.00,,,0.00,9.000000,,2013-06-07 13:52:00,
2013-06-07 07:02:00,67.0,52.0,-100.00,SSE,164,4.0,5.0,58,0.00,,,0.00,9.000000,,2013-06-07 14:02:00,
2013-06-07 07:12:00,67.0,52.0,-100.00,SSE,164,4.0,5.0,58,0.00,,,0.00,9.000000,,2013-06-07 14:12:00,
2013-06-07 07:33:00,74.0,55.0,-100.00,SSE,158,2.0,5.0,52,0.00,,,0.00,146.000000,,2013-06-07 14:33:00,
2013-06-07 07:42:00,74.0,55.0,-100.00,SSE,158,2.0,5.0,52,0.00,,,0.00,146.000000,,2013-06-07 14:42:00,
2013-06-07 07:52:00,74.0,55.0,-100.00,SSE,158,2.0,5.0,52,0.00,,,0.00,146.000000,,2013-06-07 14:52:00,
2013-06-07 08:02:00,74.0,55.0,-100.00,SSE,158,2.0,5.0,52,0.00,,,0.00,146.000000,,2013-06-07 15:02:00,
2013-06-07 08:12:00,74.0,55.0,-100.00,SSE,158,2.0,5.0,52,0.00,,,0.00,146.000000,,2013-06-07 15:12:00,
2013-06-07 08:33:00,78.0,54.0,-100.00,SSW,203,2.0,4.0,43,0.00,,,-99.99,373.000000,,2013-06-07 15:33:00,
2013-06-07 08:43:00,78.0,54.0,-100.00,SSW,203,2.0,4.0,43,0.00,,,-99.99,373.000000,,2013-06-07 15:43:00,
2013-06-07 08:53:00,78.0,54.0,-100.00,SSW,203,2.0,4.0,43,0.00,,,-99.99,373.000000,,2013-06-07 15:53:00,
2013-06-07 09:03:00,78.0,54.0,-100.00,SSW,203,2.0,4.0,43,0.00,,,-99.99,373.000000,,2013-06-07 16:03:00,
2013-06-07 09:12:00,78.0,54.0,-100.00,SSW,203,2.0,4.0,43,0.00,,,-99.99,373.000000,,2013-06-07 16:12:00,
2013-06-07 09:33:00,84.0,55.0,-100.00,NW,318,2.0,5.0,37,0.00,,,0.00,576.000000,,2013-06-07 16:33:00,
2013-06-07 09:43:00,84.0,55.0,-100.00,NW,318,2.0,5.0,37,0.00,,,0.00,576.000000,,2013-06-07 16:43:00,
2013-06-07 09:53:00,84.0,55.0,-100.00,NW,318,2.0,5.0,37,0.00,,,0.00,576.000000,,2013-06-07 16:53:00,
2013-06-07 10:02:00,84.0,55.0,-100.00,NW,318,2.0,5.0,37,0.00,,,0.00,576.000000,,2013-06-07 17:02:00,
2013-06-07 10:32:00,89.0,49.0,-100.00,SW,232,1.0,7.0,25,0.00,,,0.00,754.000000,,2013-06-07 17:32:00,
2013-06-07 10:43:00,89.0,49.0,-100.00,SW,232,1.0,7.0,25,0.00,,,0.00,754.000000,,2013-06-07 17:43:00,
2013-06-07 10:52:00,89.0,49.0,-100.00,SW,232,1.0,7.0,25,0.00,,,0.00,754.000000,,2013-06-07 17:52:00,
2013-06-07 11:03:00,89.0,49.0,-100.00,SW,232,1.0,7.0,25,0.00,,,0.00,754.000000,,2013-06-07 18:03:00,
2013-06-07 11:13:00,89.0,49.0,-100.00,SW,232,1.0,7.0,25,0.00,,,0.00,754.000000,,2013-06-07 18:13:00,
2013-06-07 11:38:00,94.0,43.0,-100.00,NNW,335,3.0,8.0,17,0.00,,,0.00,892.000000,,2013-06-07 18:38:00,
2013-06-07 11:45:00,94.0,43.0,-100.00,NNW,335,3.0,8.0,17,0.00,,,0.00,892.000000,,2013-06-07 18:45:00,
2013-06-07 11:58:00,94.0,43.0,-100.00,NNW,335,3.0,8.0,17,0.00,,,0.00,892.000000,,2013-06-07 18:58:00,
2013-06-07 12:04:00,94.0,43.0,-100.00,NNW,335,3.0,8.0,17,0.00,,,0.00,892.000000,,2013-06-07 19:04:00,
2013-06-07 12:50:00,99.0,45.0,-100.00,NNW,339,3.0,9.0,16,-99.99,,,0.00,980.000000,,2013-06-07 19:50:00,
2013-06-07 12:57:00,99.0,45.0,-100.00,NNW,339,3.0,9.0,16,-99.99,,,0.00,980.000000,,2013-06-07 19:57:00,
2013-06-07 13:03:00,99.0,45.0,-100.00,NNW,339,3.0,9.0,16,-99.99,,,0.00,980.000000,,2013-06-07 20:03:00,
2013-06-07 13:57:00,102.0,35.0,-100.00,North,350,5.0,15.0,10,-99.99,,,0.00,1011.000000,,2013-06-07 20:57:00,
2013-06-07 14:04:00,102.0,35.0,-100.00,North,350,5.0,15.0,10,-99.99,,,0.00,1011.000000,,2013-06-07 21:04:00,
2013-06-07 14:42:00,99.0,47.0,-100.00,WSW,254,9.0,18.0,17,-99.99,,,0.00,812.000000,,2013-06-07 21:42:00,
2013-06-07 14:59:00,99.0,47.0,-100.00,WSW,254,9.0,18.0,17,-99.99,,,0.00,812.000000,,2013-06-07 21:59:00,
2013-06-07 15:07:00,99.0,47.0,-100.00,WSW,254,9.0,18.0,17,-99.99,,,0.00,812.000000,,2013-06-07 22:07:00,
2013-06-07 15:39:00,100.0,47.0,-100.00,WSW,241,15.0,25.0,17,0.00,,,0.00,840.000000,,2013-06-07 22:39:00,
2013-06-07 15:49:00,100.0,47.0,-100.00,WSW,241,15.0,25.0,17,0.00,,,0.00,840.000000,,2013-06-07 22:49:00,
2013-06-07 15:59:00,100.0,47.0,-100.00,WSW,241,15.0,25.0,17,0.00,,,0.00,840.000000,,2013-06-07 22:59:00,
2013-06-07 16:05:00,100.0,47.0,-100.00,WSW,241,15.0,25.0,17,0.00,,,0.00,840.000000,,2013-06-07 23:05:00,
2013-06-07 16:40:00,97.0,51.0,-100.00,SW,235,17.0,31.0,21,0.00,,,0.00,794.000000,,2013-06-07 23:40:00,
2013-06-07 16:53:00,97.0,51.0,-100.00,SW,235,17.0,31.0,21,0.00,,,0.00,794.000000,,2013-06-07 23:53:00,
2013-06-07 17:00:00,97.0,51.0,-100.00,SW,235,17.0,31.0,21,0.00,,,0.00,794.000000,,2013-06-08 00:00:00,
2013-06-07 17:14:00,97.0,51.0,-100.00,SW,235,17.0,31.0,21,0.00,,,0.00,794.000000,,2013-06-08 00:14:00,
2013-06-07 17:37:00,99.0,48.0,-100.00,WSW,256,12.0,26.0,18,0.00,,,-99.99,598.000000,,2013-06-08 00:37:00,
2013-06-07 17:47:00,99.0,48.0,-100.00,WSW,256,12.0,26.0,18,0.00,,,-99.99,598.000000,,2013-06-08 00:47:00,
2013-06-07 17:58:00,99.0,48.0,-100.00,WSW,256,12.0,26.0,18,0.00,,,-99.99,598.000000,,2013-06-08 00:58:00,
2013-06-07 18:04:00,99.0,48.0,-100.00,WSW,256,12.0,26.0,18,0.00,,,-99.99,598.000000,,2013-06-08 01:04:00,
2013-06-07 18:14:00,99.0,48.0,-100.00,WSW,256,12.0,26.0,18,0.00,,,-99.99,598.000000,,2013-06-08 01:14:00,
2013-06-07 18:39:00,97.0,45.0,-100.00,WSW,243,9.0,22.0,17,0.00,,,0.00,384.000000,,2013-06-08 01:39:00,
2013-06-07 18:48:00,97.0,45.0,-100.00,WSW,243,9.0,22.0,17,0.00,,,0.00,384.000000,,2013-06-08 01:48:00,
2013-06-07 18:58:00,97.0,45.0,-100.00,WSW,243,9.0,22.0,17,0.00,,,0.00,384.000000,,2013-06-08 01:58:00,
2013-06-07 19:06:00,97.0,45.0,-100.00,WSW,243,9.0,22.0,17,0.00,,,0.00,384.000000,,2013-06-08 02:06:00,
2013-06-07 19:13:00,97.0,45.0,-100.00,WSW,243,9.0,22.0,17,0.00,,,0.00,384.000000,,2013-06-08 02:13:00,
2013-06-07 19:37:00,92.0,45.0,-100.00,WSW,249,10.0,20.0,20,0.00,,,0.00,160.000000,,2013-06-08 02:37:00,
2013-06-07 19:49:00,92.0,45.0,-100.00,WSW,249,10.0,20.0,20,0.00,,,0.00,160.000000,,2013-06-08 02:49:00,
2013-06-07 19:58:00,92.0,45.0,-100.00,WSW,249,10.0,20.0,20,0.00,,,0.00,160.000000,,2013-06-08 02:58:00,
2013-06-07 20:06:00,92.0,45.0,-100.00,WSW,249,10.0,20.0,20,0.00,,,0.00,160.000000,,2013-06-08 03:06:00,
2013-06-07 20:14:00,92.0,45.0,-100.00,WSW,249,10.0,20.0,20,0.00,,,0.00,160.000000,,2013-06-08 03:14:00,
2013-06-07 20:40:00,88.0,51.0,-100.00,SW,231,7.0,21.0,28,0.00,,,-99.99,18.000000,,2013-06-08 03:40:00,
2013-06-07 20:52:00,88.0,51.0,-100.00,SW,231,7.0,21.0,28,0.00,,,-99.99,18.000000,,2013-06-08 03:52:00,
2013-06-07 20:59:00,88.0,51.0,-100.00,SW,231,7.0,21.0,28,0.00,,,-99.99,18.000000,,2013-06-08 03:59:00,
2013-06-07 21:03:00,88.0,51.0,-100.00,SW,231,7.0,21.0,28,0.00,,,-99.99,18.000000,,2013-06-08 04:03:00,
2013-06-07 21:12:00,88.0,51.0,-100.00,SW,231,7.0,21.0,28,0.00,,,-99.99,18.000000,,2013-06-08 04:12:00,
2013-06-07 21:33:00,86.0,46.0,-100.00,SSW,205,7.0,14.0,25,0.00,,,0.00,0.000000,,2013-06-08 04:33:00,
2013-06-07 21:42:00,86.0,46.0,-100.00,SSW,205,7.0,14.0,25,0.00,,,0.00,0.000000,,2013-06-08 04:42:00,
2013-06-07 21:53:00,86.0,46.0,-100.00,SSW,205,7.0,14.0,25,0.00,,,0.00,0.000000,,2013-06-08 04:53:00,
2013-06-07 22:02:00,86.0,46.0,-100.00,SSW,205,7.0,14.0,25,0.00,,,0.00,0.000000,,2013-06-08 05:02:00,
2013-06-07 22:12:00,86.0,46.0,-100.00,SSW,205,7.0,14.0,25,0.00,,,0.00,0.000000,,2013-06-08 05:12:00,
2013-06-07 22:32:00,87.0,45.0,-100.00,SSW,203,8.0,15.0,23,0.00,,,0.00,0.000000,,2013-06-08 05:32:00,
2013-06-07 22:42:00,87.0,45.0,-100.00,SSW,203,8.0,15.0,23,0.00,,,0.00,0.000000,,2013-06-08 05:42:00,
2013-06-07 22:52:00,87.0,45.0,-100.00,SSW,203,8.0,15.0,23,0.00,,,0.00,0.000000,,2013-06-08 05:52:00,
2013-06-07 23:02:00,87.0,45.0,-100.00,SSW,203,8.0,15.0,23,0.00,,,0.00,0.000000,,2013-06-08 06:02:00,
2013-06-07 23:12:00,87.0,45.0,-100.00,SSW,203,8.0,15.0,23,0.00,,,0.00,0.000000,,2013-06-08 06:12:00,
2013-06-07 23:32:00,87.0,37.0,-100.00,SSW,197,10.0,16.0,17,0.00,,,0.00,0.000000,,2013-06-08 06:32:00,
2013-06-07 23:42:00,87.0,37.0,-100.00,SSW,197,10.0,16.0,17,0.00,,,0.00,0.000000,,2013-06-08 06:42:00,
2013-06-07 23:52:00,87.0,37.0,-100.00,SSW,197,10.0,16.0,17,0.00,,,0.00,0.000000,,2013-06-08 06:52:00,